Flag for Australia Weather past 2 weeks in Darwin, Northern Territory, Australia

84 °F

Passing clouds.

Feels Like: 96 °F
Forecast: 84 / 93 °F
Wind: 6 mph from West

Location: Darwin Airport

Current Time: Nov 26, 2015 at 4:47:57 AM

Latest Report: Nov 26, 2015 at 4:00 AM

Visibility: N/A

Pressure: 29.74 "Hg

Humidity: 84%

Dew point: 79 °F

Location of DarwinLocation

Historic Weather in Darwin — Graph


Darwin temperature yesterday

Maximum temperature yesterday: 93 °F (at 11:30 AM)
Minimum temperature yesterday: 81 °F (at 4:30 AM)
Average temperature yesterday: 88 °F

Past Weeks' High & Low Weather Summary

High97 °F (Nov 24, 3:30 PM)100% (Nov 14, 10:00 PM)29.92 "Hg (Nov 14, 10:00 PM)
Low72 °F (Nov 14, 10:00 PM)30% (Nov 24, 3:30 PM)29.68 "Hg (Nov 11, 5:00 PM)
Average86 °F67%29.79 "Hg
* Reported Nov 11 3:30 AM — Nov 26 3:30 AM, Darwin, Weather by CustomWeather, © 2015

Note: Actual official high and low records may vary slightly from our data, if they occured in-between our weather recording intervals... More about our weather records


Darwin weather history for previous 24 hours

Time TempWeatherWind HumidityBarometerVisibility
3:30 AM
Thu, Nov 26
86 °FPassing clouds.7 mph75%29.74 "HgN/A
3:00 AM86 °FPassing clouds.8 mph79%29.74 "HgN/A
2:30 AM86 °FPassing clouds.7 mph75%29.77 "HgN/A
2:00 AM86 °FPassing clouds.8 mph75%29.77 "HgN/A
1:30 AM86 °FPassing clouds.9 mph75%29.77 "HgN/A
1:00 AM86 °FPassing clouds.9 mph75%29.77 "HgN/A
12:30 AM86 °FPassing clouds.9 mph75%29.77 "HgN/A
12:00 AM86 °FPassing clouds.10 mph70%29.80 "HgN/A
11:30 PM
Wed, Nov 25
86 °FPassing clouds.10 mph70%29.80 "HgN/A
11:00 PM86 °FPassing clouds.10 mph70%29.77 "HgN/A
10:30 PM88 °FClear.13 mph66%29.77 "Hg10 mi
10:00 PM88 °FClear.13 mph66%29.77 "Hg10 mi
9:30 PM88 °FClear.8 mph66%29.77 "Hg10 mi
9:00 PM88 °FClear.7 mph66%29.77 "Hg10 mi
8:30 PM88 °FClear.8 mph66%29.77 "Hg10 mi
8:00 PM88 °FClear.9 mph66%29.74 "Hg10 mi
7:30 PM88 °FClear.10 mph62%29.74 "Hg10 mi
7:00 PM90 °FSunny.13 mph59%29.71 "Hg10 mi
6:30 PM90 °FSunny.13 mph55%29.71 "Hg10 mi
6:00 PM90 °FSunny.15 mph59%29.71 "Hg10 mi
5:30 PM91 °FSunny.18 mph56%29.71 "Hg10 mi
5:00 PM91 °FSunny.20 mph59%29.68 "Hg10 mi
4:30 PM91 °FPassing clouds.18 mph56%29.68 "HgN/A
4:00 PM91 °FPassing clouds.18 mph56%29.71 "HgN/A
3:00 PM93 °FPassing clouds.18 mph53%29.71 "HgN/A
2:30 PM93 °FPassing clouds.17 mph53%29.74 "HgN/A
1:30 PM93 °FPassing clouds.14 mph53%29.77 "HgN/A
1:00 PM93 °FPassing clouds.14 mph53%29.77 "HgN/A
12:30 PM93 °FPassing clouds.13 mph53%29.77 "HgN/A
12:00 PM93 °FPassing clouds.12 mph53%29.80 "HgN/A
11:30 AM93 °FPassing clouds.6 mph47%29.80 "HgN/A
11:00 AM91 °FPassing clouds.7 mph49%29.83 "HgN/A
10:30 AM90 °FPassing clouds.8 mph55%29.83 "HgN/A
10:00 AM90 °FPassing clouds.8 mph52%29.83 "HgN/A
9:00 AM88 °FPassing clouds.7 mph62%29.83 "HgN/A
8:30 AM88 °FPassing clouds.3 mph62%29.83 "HgN/A
8:00 AM86 °FPassing clouds.5 mph70%29.83 "HgN/A
7:30 AM84 °FPassing clouds.7 mph74%29.80 "HgN/A
7:00 AM82 °FPassing clouds.5 mph79%29.80 "HgN/A
6:00 AM81 °FPassing clouds.6 mph84%29.77 "HgN/A
5:30 AM81 °FPassing clouds.5 mph84%29.77 "HgN/A
5:00 AM81 °FPassing clouds.3 mph84%29.77 "HgN/A
4:30 AM81 °FClear.3 mph84%29.77 "Hg10 mi
4:00 AM82 °FClear.6 mph79%29.74 "Hg10 mi
Weather by CustomWeather, © 2015

See weather overviewHow to use our weather pages